This is the latest recevied weather packets stored in our database for station/object G4KVI. If no packets are shown the sender has not sent any weather packets the latest 10 day(s).
| Time | Temp. | Humidity | Pressure | Rain* | Wind** | Luminosity | Snow |
|---|---|---|---|---|---|---|---|
| 1777305604 | 20.56° C | 38% | 1024.7 hPa | 0 mm | - | 399 W/m² | - |
| 1777305304 | 20.56° C | 38% | 1024.8 hPa | 0 mm | - | 219 W/m² | - |
| 1777305004 | 20.56° C | 38% | 1025.1 hPa | 0 mm | - | 425 W/m² | - |
| 1777304704 | 20.56° C | 38% | 1025 hPa | 0 mm | - | 174 W/m² | - |
| 1777304404 | 20.56° C | 37% | 1024.7 hPa | 0 mm | - | 376 W/m² | - |
| 1777303506 | 20.56° C | 34% | 1024.9 hPa | 0 mm | - | 442 W/m² | - |
| 1777303204 | 21.11° C | 33% | 1024.8 hPa | 0 mm | - | 435 W/m² | - |
| 1777302904 | 20.56° C | 33% | 1025 hPa | 0 mm | - | 459 W/m² | - |
| 1777302604 | 20.56° C | 32% | 1025 hPa | 0 mm | - | 462 W/m² | - |
| 1777302304 | 20.56° C | 33% | 1025 hPa | 0 mm | - | 479 W/m² | - |
| 1777302004 | 20.56° C | 33% | 1025 hPa | 0 mm | - | 480 W/m² | - |
| 1777301704 | 21.11° C | 32% | 1025.1 hPa | 0 mm | - | 491 W/m² | - |
| 1777301404 | 21.11° C | 32% | 1025.1 hPa | 0 mm | - | 488 W/m² | - |
| 1777301104 | 21.11° C | 33% | 1025.4 hPa | 0 mm | - | 506 W/m² | - |
| 1777300804 | 21.11° C | 33% | 1025.2 hPa | 0 mm | - | 517 W/m² | - |
| 1777300504 | 21.11° C | 33% | 1025.2 hPa | 0 mm | - | 527 W/m² | - |
| 1777300204 | 20.56° C | 34% | 1025.4 hPa | 0 mm | - | 540 W/m² | - |
| 1777299904 | 20.56° C | 34% | 1025.4 hPa | 0 mm | - | 552 W/m² | - |
| 1777299604 | 20.56° C | 34% | 1025.4 hPa | 0 mm | - | 563 W/m² | - |
| 1777299304 | 20.56° C | 33% | 1025.3 hPa | 0 mm | - | 577 W/m² | - |
| 1777299004 | 20.56° C | 33% | 1025.5 hPa | 0 mm | - | 577 W/m² | - |
| 1777298704 | 20.56° C | 32% | 1025.7 hPa | 0 mm | - | 584 W/m² | - |
| 1777298404 | 20.56° C | 29% | 1025.6 hPa | 0 mm | - | 600 W/m² | - |
| 1777298104 | 20.56° C | 30% | 1025.5 hPa | 0 mm | - | 611 W/m² | - |
| 1777297804 | 21.11° C | 28% | 1025.8 hPa | 0 mm | - | 616 W/m² | - |
* Rain latest hour (hover to see other rain measurements)
** Current wind speed in m/s (hover to see current wind gust speed)